Probability
3 3 3 3 0 0 3 3 0 0 0 0 0 0 0 0 0 0 0 0 0 0 0 0 0 0 0 0 0 0 0 0 0 0 0 0 0 0 0 0 0 0 0
6 3 3 3 3 3 0 0 0 0 3 0 0 0 0 0 0 0 0 0 0 0 0 0 0 0 0 0 0 3 3 0 0 0 0 0 0 0 0 0 0 0 0
0 3 6 6 6 6 6 3 3 0 3 3 3 0 0 0 0 0 0 0 0 0 0 0 0 0 0 0 0 0 0 0 0 0 0 0 0 0 0 0 0 0 0
0 0 0 0 0 3 0 3 3 3 3 0 3 3 3 3 3 0 0 0 0 0 0 0 0 0 0 0 0 0 0 0 0 0 0 0 0 0 0 0 0 0 0
0 0 0 0 0 0 0 0 0 3 0 0 0 0 3 0 0 0 0 0 0 0 0 0 0 0 0 0 0 0 0 0 0 0 0 0 0 0 0 0 0 0 0
0 0 0 0 0 0 0 0 0 3 3 3 3 3 0 0 0 0 0 0 0 0 0 0 0 0 0 0 0 0 0 0 0 0 0 0 0 0 0 0 0 0 0
0 0 0 0 0 0 0 0 0 0 3 3 3 3 0 0 0 0 0 0 0 0 0 0 0 0 0 0 0 0 0 0 0 0 0 0 0 0 0 0 0 0 0
0 0 0 0 0 0 0 0 0 0 0 0 0 0 0 0 0 0 0 0 0 0 0 0 0 0 0 0 0 0 0 0 0 0 0 0 0 0 0 0 0 0 0
0 0 0 0 0 0 0 0 0 0 0 0 0 0 0 0 0 0 0 0 3 3 3 3 3 0 0 0 0 0 0 0 0 0 0 0 0 0 0 0 0 0 0
0 0 0 0 0 0 0 0 0 3 3 3 0 0 0 0 0 0 0 0 0 0 0 0 0 0 0 0 0 0 3 3 0 0 0 0 0 0 0 0 0 0 0
0 0 0 0 0 0 0 3 3 3 3 3 0 0 0 0 0 0 0 0 0 0 0 0 0 0 0 0 0 0 0 0 0 0 0 0 0 0 0 0 0 0 0
0 0 0 3 0 0 3 3 3 3 3 3 0 0 0 0 0 0 0 0 0 0 0 0 0 0 0 0 0 0 0 0 0 0 0 0 0 0 0 0 0 0 0
0 0 3 3 0 0 0 3 3 3 3 3 3 0 0 0 0 0 0 0 0 0 0 0 0 0 0 0 0 0 0 0 0 0 0 0 0 0 0 0 0 0 0
0 0 0 0 0 0 0 3 3 3 3 3 3 0 0 0 0 0 0 0 0 0 0 0 0 0 0 0 0 0 0 0 0 0 0 0 0 0 0 0 0 0 0
0 3 3 3 0 0 0 0 3 3 3 3 3 0 0 0 0 0 0 0 0 0 0 0 0 0 0 0 0 0 0 0 0 0 0 0 0 0 0 0 0 0 0
0 0 0 3 3 0 0 0 0 0 0 0 0 0 0 0 0 0 0 0 0 0 0 0 0 0 0 0 0 0 0 0 0 0 0 0 0 0 0 0 0 0 0
0 0 0 0 0 0 0 0 0 0 0 0 0 0 0 0 0 0 0 0 0 0 0 0 0 0 0 0 0 0 0 0 0 0 0 0 0 0 0 0 0 0 0
0 0 0 0 0 0 0 0 0 0 0 0 0 0 0 0 0 0 0 0 0 0 0 0 0 0 0 0 0 0 0 0 0 0 0 0 0 0 0 0 0 0 0
0 0 0 0 0 0 0 0 0 0 0 0 0 0 0 0 0 0 0 0 0 0 0 0 0 0 0 0 0 0 0 0 0 0 0 0 0 0 0 0 0 0 0
0 0 0 0 0 0 0 0 0 0 0 0 0 0 0 0 0 0 0 0 0 0 0 0 0 0 0 0 0 0 0 0 0 0 0 0 0 0 0 0 0 0 0
0 0 0 0 0 0 0 0 0 0 0 0 0 0 0 0 0 0 0 0 0 0 0 0 0 0 0 0 0 0 0 0 0 0 0 0 0 0 0 0 0 0 0
0 0 0 0 0 0 0 0 0 0 0 0 0 0 0 0 0 0 0 0 0 0 0 0 0 0 0 0 0 0 0 0 0 0 0 0 0 0 0 0 0 0 0
0 0 0 3 3 0 0 0 0 0 0 3 3 0 0 0 0 0 0 0 0 0 0 0 0 0 0 0 0 0 0 0 0 0 0 0 0 0 0 0 0 0 0
0 0 3 3 3 3 3 3 3 3 3 3 3 0 0 0 0 0 0 0 0 0 0 0 0 0 0 0 0 0 0 0 0 0 0 0 0 0 0 0 0 0 0
0 3 3 3 3 3 3 3 3 3 3 3 3 0 0 0 0 0 0 0 0 0 0 0 0 0 0 0 0 0 0 0 0 0 0 0 0 0 0 0 0 0 0
0 0 0 3 0 3 3 3 3 3 3 0 0 0 0 0 0 0 0 0 0 0 0 0 0 0 0 0 0 0 0 0 0 0 0 0 0 0 0 0 0 0 0
Height
5856 5856 5856 5856 5856 5856 5856 5856 5856 5856 5856 5856 5856 5856 5856 5855 5855 5855 5854 5854 5853 5852 5851 5851 5850 5849 5848 5847 5845 5844 5843 5841 5840 5838 5836 5835 5833 5832 5830 5828 5826 5824 5822
5854 5854 5854 5855 5855 5855 5854 5854 5854 5854 5854 5854 5855 5854 5854 5854 5853 5853 5852 5852 5851 5850 5849 5848 5847 5846 5845 5844 5843 5841 5840 5838 5837 5835 5833 5831 5829 5828 5826 5824 5822 5819 5817
5851 5852 5852 5852 5853 5853 5853 5853 5852 5852 5852 5852 5853 5853 5852 5852 5851 5851 5850 5849 5849 5848 5847 5846 5845 5844 5842 5841 5839 5838 5836 5834 5833 5831 5829 5827 5825 5823 5821 5819 5817 5815 5812
5849 5849 5849 5850 5850 5850 5850 5850 5850 5850 5850 5850 5850 5850 5850 5849 5849 5848 5848 5847 5846 5845 5844 5843 5841 5840 5839 5837 5835 5834 5832 5830 5828 5827 5825 5823 5821 5819 5817 5814 5812 5809 5806
5846 5846 5846 5847 5847 5847 5847 5848 5848 5848 5848 5848 5848 5847 5847 5847 5846 5845 5845 5844 5843 5842 5841 5839 5838 5836 5834 5833 5831 5829 5827 5826 5824 5822 5820 5818 5816 5813 5811 5808 5806 5803 5800
5842 5843 5843 5843 5844 5844 5844 5845 5845 5845 5845 5845 5845 5844 5844 5843 5843 5842 5841 5840 5839 5838 5837 5835 5834 5832 5830 5829 5827 5825 5823 5821 5819 5817 5815 5812 5810 5808 5805 5802 5799 5797 5794
5839 5839 5840 5840 5841 5841 5841 5841 5842 5842 5841 5841 5841 5841 5840 5840 5839 5838 5837 5836 5835 5833 5832 5831 5829 5828 5826 5824 5822 5820 5818 5816 5815 5813 5810 5807 5805 5802 5799 5796 5793 5790 5787
5835 5836 5836 5836 5837 5837 5838 5838 5838 5838 5838 5837 5837 5836 5836 5835 5834 5833 5832 5831 5830 5829 5827 5826 5825 5823 5821 5820 5818 5816 5813 5811 5809 5807 5805 5802 5799 5796 5793 5790 5786 5783 5780
5831 5832 5832 5832 5833 5833 5834 5834 5834 5834 5833 5833 5832 5832 5831 5830 5829 5828 5827 5826 5825 5824 5823 5821 5820 5818 5817 5815 5813 5811 5808 5806 5804 5801 5799 5796 5792 5789 5786 5783 5779 5776 5773
5826 5827 5827 5828 5828 5829 5829 5829 5829 5829 5829 5828 5827 5827 5826 5825 5824 5823 5822 5821 5820 5819 5818 5816 5815 5813 5811 5809 5807 5805 5803 5801 5798 5795 5792 5789 5786 5782 5779 5776 5772 5768 5765
5821 5822 5822 5823 5823 5824 5824 5824 5824 5824 5824 5823 5822 5821 5821 5820 5819 5818 5817 5816 5815 5814 5812 5811 5810 5808 5806 5804 5801 5799 5797 5794 5791 5789 5785 5782 5778 5775 5771 5768 5764 5760 5756
5816 5816 5817 5817 5818 5818 5818 5818 5818 5818 5818 5817 5817 5816 5815 5814 5813 5812 5811 5811 5810 5808 5807 5806 5804 5802 5800 5798 5795 5793 5790 5788 5785 5782 5778 5775 5771 5767 5764 5760 5756 5752 5748
5810 5810 5811 5811 5812 5812 5812 5812 5812 5812 5812 5812 5811 5810 5809 5808 5808 5807 5806 5805 5804 5803 5801 5800 5798 5796 5794 5792 5789 5787 5784 5781 5778 5775 5771 5768 5764 5760 5756 5752 5748 5744 5739
5803 5804 5804 5805 5805 5806 5806 5806 5806 5806 5806 5805 5805 5804 5803 5803 5802 5801 5800 5799 5797 5796 5795 5793 5792 5789 5787 5785 5782 5780 5777 5774 5770 5767 5764 5760 5756 5752 5748 5744 5740 5735 5730
5796 5797 5797 5798 5799 5799 5799 5799 5800 5800 5800 5799 5799 5798 5797 5796 5795 5794 5793 5792 5791 5790 5788 5787 5785 5782 5780 5778 5775 5772 5769 5766 5763 5760 5756 5752 5748 5744 5740 5736 5731 5726 5721
5789 5790 5790 5791 5791 5792 5792 5793 5793 5793 5793 5792 5792 5791 5790 5789 5788 5787 5786 5785 5784 5783 5781 5779 5777 5775 5773 5770 5768 5765 5762 5759 5755 5752 5748 5744 5740 5736 5731 5727 5722 5717 5712
5781 5782 5783 5783 5784 5784 5785 5785 5785 5785 5785 5785 5785 5784 5783 5782 5781 5780 5779 5777 5776 5775 5773 5771 5769 5767 5765 5763 5760 5757 5754 5750 5747 5743 5740 5736 5731 5727 5722 5718 5713 5708 5703
5773 5774 5775 5775 5776 5777 5777 5777 5777 5777 5777 5777 5777 5776 5776 5775 5773 5772 5771 5770 5769 5767 5766 5764 5762 5759 5757 5755 5752 5749 5746 5742 5738 5735 5731 5727 5722 5718 5713 5708 5703 5698 5694
5765 5766 5767 5767 5768 5768 5768 5769 5769 5769 5769 5769 5768 5768 5767 5766 5765 5764 5763 5762 5761 5759 5758 5755 5753 5751 5749 5746 5743 5740 5737 5733 5730 5726 5722 5718 5713 5708 5704 5699 5694 5689 5684
5757 5757 5758 5758 5759 5759 5759 5760 5760 5760 5760 5760 5760 5759 5759 5758 5757 5756 5755 5754 5752 5751 5749 5747 5745 5742 5740 5737 5734 5731 5728 5724 5720 5716 5712 5708 5703 5699 5694 5689 5684 5679 5674
5748 5748 5749 5749 5749 5749 5750 5750 5750 5750 5750 5750 5750 5750 5750 5749 5748 5747 5746 5745 5743 5742 5740 5738 5736 5733 5731 5728 5725 5721 5718 5714 5710 5706 5702 5698 5693 5689 5684 5679 5674 5669 5665
5738 5739 5739 5739 5739 5739 5740 5740 5740 5741 5741 5741 5741 5740 5740 5739 5739 5738 5737 5735 5734 5732 5730 5728 5726 5724 5721 5718 5715 5712 5708 5704 5700 5696 5692 5688 5683 5679 5674 5669 5664 5660 5655
5729 5729 5729 5730 5730 5730 5730 5730 5730 5730 5731 5731 5730 5730 5730 5729 5728 5728 5727 5726 5724 5722 5720 5718 5716 5714 5711 5708 5705 5701 5698 5694 5690 5686 5682 5678 5674 5669 5664 5660 5655 5650 5645
5719 5719 5719 5720 5720 5720 5720 5720 5720 5720 5720 5720 5720 5719 5719 5719 5718 5717 5716 5715 5713 5712 5710 5708 5706 5703 5700 5697 5694 5691 5687 5684 5680 5676 5672 5667 5663 5659 5654 5650 5645 5640 5635
5708 5709 5709 5709 5709 5709 5710 5710 5710 5710 5710 5709 5709 5709 5708 5708 5707 5706 5705 5704 5703 5701 5699 5697 5695 5692 5690 5687 5683 5680 5677 5673 5669 5665 5661 5657 5653 5648 5644 5639 5635 5630 5625
5698 5698 5699 5699 5699 5699 5699 5699 5698 5698 5698 5698 5698 5697 5697 5696 5696 5695 5694 5693 5691 5690 5688 5685 5683 5681 5678 5675 5672 5669 5666 5662 5659 5655 5651 5647 5642 5638 5633 5629 5624 5620 5615
Wind_Speed
6 7 7 6 6 6 6 6 5 5 5 4 4 5 5 6 5 5 6 6 6 7 7 8 8 9 9 9 10 11 12 12 12 13 14 15 16 16 17 17 18 18 19
7 7 7 7 7 7 6 6 6 6 5 5 5 5 5 5 6 6 7 7 7 7 8 9 10 10 11 11 12 12 13 13 14 15 15 16 16 17 17 18 19 19 20
8 9 9 8 8 7 7 7 7 7 7 6 6 6 6 7 7 8 8 8 9 9 10 11 11 12 13 13 14 15 15 15 16 16 17 17 17 18 18 18 19 20 21
10 10 10 10 9 9 9 8 8 8 8 7 8 8 8 8 9 10 9 10 10 10 11 12 13 14 15 15 16 16 17 17 17 17 18 18 19 20 20 21 22 23 24
10 10 11 11 11 10 10 10 9 9 8 9 9 10 10 10 10 11 11 11 12 12 13 13 14 15 15 16 16 17 17 17 17 18 18 19 20 21 22 23 24 25 26
11 11 12 12 11 11 11 11 11 11 10 11 12 12 11 12 12 12 13 13 14 14 14 14 15 15 16 16 17 17 18 18 18 18 19 20 21 21 23 24 25 25 26
12 12 12 12 12 12 12 12 12 12 12 13 14 14 14 14 14 15 15 15 15 15 15 16 16 16 17 17 18 18 18 18 19 19 20 21 22 23 24 25 25 26 27
13 13 13 13 13 13 12 13 13 13 13 13 14 15 15 16 16 16 16 16 16 16 15 16 17 17 18 18 18 18 18 19 20 21 22 22 23 24 25 26 27 28 28
14 14 14 14 14 14 14 14 14 14 14 15 15 15 16 16 16 17 17 16 16 16 16 17 17 18 18 18 18 19 19 20 21 22 23 24 25 26 27 28 28 29 30
15 16 15 15 16 16 16 16 15 15 16 16 16 16 16 16 16 17 17 16 16 17 17 18 18 18 19 19 19 20 20 21 22 23 25 26 27 27 28 29 30 31 31
17 17 17 17 17 17 18 17 17 17 17 17 17 16 16 16 17 17 17 17 17 17 18 19 19 19 20 20 21 21 22 23 24 25 26 27 27 28 28 29 31 31 32
18 18 18 18 18 18 19 19 18 18 18 17 17 17 18 18 17 17 17 18 18 19 20 20 20 20 21 22 22 22 23 24 25 27 27 27 28 28 29 30 31 32 32
20 20 20 20 20 20 19 20 19 19 19 19 18 18 18 19 18 18 18 19 19 20 20 20 21 22 22 23 23 24 25 26 27 27 27 28 28 29 30 30 31 32 33
21 21 21 22 21 21 21 20 19 19 19 20 20 19 19 19 19 19 19 20 20 20 21 22 23 24 25 26 26 26 26 27 28 28 29 29 29 30 31 32 33 34 35
21 21 21 22 22 22 21 20 20 19 20 20 20 20 20 20 20 21 21 22 22 23 24 24 24 25 26 26 26 27 27 27 28 28 29 29 30 32 33 34 35 35 35
22 23 23 23 23 23 22 22 22 22 22 21 21 21 21 22 22 22 23 23 24 24 25 25 25 25 25 26 27 27 28 28 28 29 30 31 32 33 34 35 36 36 37
24 24 25 24 24 24 24 24 24 24 24 23 23 23 22 22 23 24 24 24 24 24 25 25 25 25 26 26 27 27 28 29 29 30 31 32 33 34 35 36 36 36 37
24 25 24 24 25 25 26 26 26 25 24 24 24 24 24 23 24 24 24 24 24 25 25 26 26 26 27 27 29 29 30 30 31 31 32 33 34 35 36 36 36 37 37
25 25 25 25 26 26 26 27 27 27 26 26 26 26 26 25 25 25 25 25 25 25 26 26 27 28 29 30 31 31 31 32 33 34 34 34 35 36 36 37 36 36 37
26 27 27 27 27 27 28 28 28 28 28 27 27 27 27 26 26 26 26 26 27 27 28 29 29 29 31 31 32 32 33 34 35 35 35 36 37 37 37 37 37 37 36
28 29 29 29 29 28 28 29 29 29 29 28 28 28 29 29 28 28 28 28 29 29 30 31 31 31 31 32 33 33 34 35 35 35 36 36 37 37 37 37 37 37 37
30 29 30 30 29 30 29 29 30 30 30 30 31 31 30 30 30 30 30 30 30 31 31 32 32 32 32 33 33 34 34 35 35 36 36 36 37 37 38 38 38 37 38
30 29 29 29 30 30 30 30 30 30 31 32 32 32 31 31 30 30 31 32 31 31 32 32 32 33 33 34 35 35 35 35 36 37 37 36 36 37 38 37 37 37 38
30 30 30 31 31 31 31 31 31 32 32 32 32 33 32 32 32 32 32 32 32 32 32 33 34 34 35 35 36 36 36 36 37 37 36 36 36 37 38 37 37 38 38
30 31 31 32 31 31 32 32 32 32 32 32 33 33 33 33 33 33 33 33 33 33 33 33 34 34 34 35 36 36 36 37 37 37 37 37 38 38 38 37 38 38 38
31 32 32 32 32 33 33 33 33 33 34 34 34 35 35 35 35 35 34 34 34 34 34 34 34 34 35 35 36 36 36 37 37 38 38 38 38 38 38 37 37 38 39
Wind_Direction
262 258 257 260 261 261 259 258 254 249 244 249 265 268 266 268 273 279 288 294 294 290 287 289 291 294 296 296 296 297 299 299 298 297 295 294 293 294 294 294 295 296 296
261 254 256 261 262 261 262 258 252 249 248 251 262 268 268 275 280 282 287 291 294 293 292 293 293 294 296 296 296 297 298 298 298 297 297 296 295 295 296 295 296 297 299
260 253 254 258 264 265 263 258 253 251 253 256 259 266 269 277 283 285 284 285 288 288 290 291 293 294 294 295 295 295 295 295 295 295 295 297 297 297 297 299 300 301 300
260 255 255 255 260 264 264 261 259 259 259 258 261 268 274 277 279 282 283 286 289 289 290 292 292 293 294 295 295 295 295 295 294 295 295 296 296 297 297 298 299 299 300
261 257 255 255 257 262 263 261 262 265 262 263 266 272 275 279 282 283 285 286 288 289 290 293 295 294 295 296 296 296 296 296 297 297 297 297 297 298 298 299 299 300 301
261 259 259 257 257 259 263 262 264 265 265 265 267 271 274 277 280 282 284 285 285 287 288 290 292 294 295 297 298 298 298 298 299 300 300 300 300 300 302 302 302 302 303
259 260 261 258 256 259 262 261 264 267 267 267 269 271 272 274 277 281 283 285 287 287 286 289 292 295 296 297 298 299 299 298 299 300 301 301 302 302 303 304 304 304 304
259 259 261 258 257 260 265 264 266 268 270 272 272 272 273 275 277 280 281 284 284 285 287 290 293 295 297 298 299 299 298 299 299 300 301 302 302 302 303 303 304 304 304
261 261 260 258 258 259 264 267 267 269 271 273 274 275 275 276 278 281 282 283 282 282 286 291 294 294 295 296 297 299 299 299 299 300 301 302 302 302 303 303 304 304 304
262 260 261 261 259 261 263 266 269 272 274 276 276 276 277 276 277 280 280 280 281 282 286 289 292 294 295 296 297 298 299 300 301 301 301 301 302 302 303 303 304 304 304
264 262 262 262 262 264 265 267 269 271 274 276 276 276 277 278 278 280 280 279 281 284 286 289 291 294 296 297 297 297 298 300 301 302 303 303 303 303 304 304 304 305 305
264 262 261 263 264 265 267 269 270 271 273 276 276 276 278 279 280 278 278 279 280 284 285 287 290 293 296 297 297 298 299 299 301 303 304 304 304 304 305 306 306 306 305
264 264 263 264 266 266 267 268 268 270 273 273 274 276 278 280 280 278 278 280 282 285 287 288 290 292 295 297 298 300 301 301 302 303 304 305 306 306 307 307 308 308 307
262 264 265 264 264 265 266 267 268 270 273 274 274 275 277 278 278 277 278 282 284 285 287 290 291 293 294 296 297 300 301 302 302 303 304 304 305 307 308 308 308 309 309
262 264 265 265 263 265 266 266 266 268 271 273 275 276 276 277 277 276 279 281 283 285 287 288 290 292 293 293 296 298 300 302 303 304 304 304 305 306 307 308 308 309 309
261 264 265 265 264 265 265 266 267 268 270 272 274 277 279 279 277 277 279 280 283 285 286 288 290 291 293 295 297 298 300 301 302 303 304 305 305 306 307 307 307 307 307
263 264 263 264 263 264 265 266 269 270 270 270 272 274 277 281 281 280 281 282 282 284 286 289 290 291 293 295 298 300 302 302 303 303 303 304 305 306 307 308 307 307 308
264 264 264 263 262 263 265 266 268 270 271 271 271 273 276 279 280 281 281 281 282 285 287 289 290 291 294 296 298 299 300 301 302 303 303 304 305 306 307 308 308 307 307
263 263 264 264 264 264 266 268 268 269 270 270 271 272 274 277 278 279 280 282 283 285 287 288 289 292 294 296 297 298 299 300 301 302 303 304 305 306 307 308 308 307 307
264 264 265 265 265 264 265 267 269 270 270 269 270 270 272 275 277 279 280 281 283 285 287 288 289 292 294 295 297 298 299 300 301 302 303 304 304 305 306 307 307 306 306
265 265 264 265 264 265 266 267 268 269 270 269 269 270 271 272 275 277 280 282 282 283 285 287 289 291 292 294 296 298 299 300 300 301 302 303 305 305 305 306 306 305 305
266 265 265 266 266 267 269 270 269 268 268 269 270 269 271 273 275 276 278 280 282 283 284 286 288 289 291 294 296 297 298 299 299 299 300 301 303 304 305 306 305 305 304
267 266 265 266 267 268 270 270 270 269 269 269 270 269 270 271 273 275 278 279 281 283 284 286 288 290 291 293 295 296 297 297 298 298 299 301 302 304 305 306 306 306 306
267 266 265 266 267 268 268 269 269 269 269 269 269 269 270 272 274 276 278 279 281 283 285 286 287 289 291 293 295 297 298 298 299 299 300 301 301 303 305 304 305 306 307
267 266 266 267 267 268 268 268 268 268 269 270 270 270 271 272 273 275 277 279 281 283 285 286 287 288 290 293 295 296 298 298 300 300 301 302 302 303 303 304 305 306 306
268 267 267 267 267 268 269 269 269 269 269 270 270 270 271 273 274 275 277 278 281 283 285 286 288 289 290 292 294 295 296 297 298 299 300 302 303 303 304 304 305 306 306